Hourly Data Report for January 12, 2018

All times are specified in Local Standard Time (LST). Add 1 hour to adjust for Daylight Saving Time where and when it is observed.

WINNIPEG A CS
MANITOBA

49°55'00.000" N
97°14'58.000" W
238.70 m
502S001
71849
XWG

Download Data

Hourly Data (January 2018)
Hourly Data Report for January 12, 2018
Temp Definition
°C
Dew Point Temp Definition
°C
Rel Hum Definition
%
Wind Dir Definition
10's deg

Wind Spd Definition
km/h
Visibility Definition
km
Stn Press Definition
kPa
Hmdx Definition


Wind Chill Definition


Weather Definition


TIME
00:00 -28.6 -31.9 74 26 12   100.15   -38 LegendNANA
01:00 -27.4 -30.8 73 25 16   100.15   -39 LegendNANA
02:00 -27.9 -31.6 70 25 12   100.15   -38 LegendNANA
03:00 -28.0 -31.9 69 24 12   100.19   -38 LegendNANA
04:00 -28.8 -32.5 70 25 10   100.19   -38 LegendNANA
05:00 -28.8 -32.3 72 25 12   100.20   -39 LegendNANA
06:00 -29.2 -32.9 71 26 10   100.24   -38 LegendNANA
07:00 -30.6 -34.0 72 26 11   100.28   -40 LegendNANA
08:00 -30.3 -33.8 71 26 13   100.31   -41 LegendNANA
09:00 -29.8 -33.7 69 29 10   100.38   -39 LegendNANA
10:00 -27.2 -32.0 64 26 12   100.46   -37 LegendNANA
11:00 -24.9 -30.6 59 27 11   100.54   -34 LegendNANA
12:00 -23.4 -29.6 57 27 10   100.55   -31 LegendNANA
13:00 -22.4 -28.1 60 27 18   100.54   -33 LegendNANA
14:00 -20.7 -26.5 60 28 21   100.51   -32 LegendNANA
15:00 -20.2 -26.4 58 29 21   100.55   -31 LegendNANA
16:00 -20.6 -26.6 59 30 17   100.63   -30 LegendNANA
17:00 -23.5 -27.7 68 28 12   100.71   -32 LegendNANA
18:00 -24.2 -27.9 71 27 17   100.73   -35 LegendNANA
19:00 -25.9 -29.5 72 28 12   100.81   -35 LegendNANA
20:00 -25.3 -28.7 73 26 13   100.84   -35 LegendNANA
21:00 -26.0 -29.0 76 27 16   100.85   -37 LegendNANA
22:00 -26.1 -29.0 76 27 9   100.88   -34 LegendNANA
23:00 -26.9 -30.2 74 26 14   100.89   -37 LegendNANA

Notes on Data Quality.

Legend

  • E = Estimated
  • M = Missing
  • NA = Not Available
  • ‡ = Partner data that is not subject to review by the National Climate Archives
Date modified: